Location: Choisy
(48.7685°N, 2.4187°E)
Time: 10:12:14
(UTC+00:00)

ATLAS 3B R/B - Pass Details

Date: 02 December 2023
Orbit: 947 x 1247 km, 63.8° (Epoch: 10 February)

Event Time Altitude Azimuth Distance (km) Brightness Sun altitude
Exits shadow 03:37:50 40° 146° (SE) 1,582 3.6 -36.2°
Maximum altitude 03:39:12 44° 117° (ESE) 1,505 3.6 -35.9°
Drops below altitude 10° 03:46:08 10° 49° (NE) 3,113 5.7 -34.8°
Sets 03:49:05 0° 43° (NE) 4,116 6.4 -34.3°
